Date,TemperatureHighF,TemperatureAvgF,TemperatureLowF,DewpointHighF,DewpointAvgF,DewpointLowF,HumidityHigh,HumidityAvg,HumidityLow,PressureMaxIn,PressureMinIn,WindSpeedMaxMPH,WindSpeedAvgMPH,GustSpeedMaxMPH,PrecipitationSumIn
2014-1-1,49,32,23,28,23,16,86,69,42,30.34,30.06,11,1,12,0.00
2014-1-2,32,29,25,28,25,21,93,86,77,30.06,29.61,9,1,9,0.00
2014-1-3,28,16,4,24,4,-2,90,60,38,30.45,29.65,23,6,28,0.00
2014-1-4,32,15,1,15,6,-3,87,71,45,30.43,30.19,9,1,9,0.00
2014-1-5,33,22,9,32,19,6,96,88,68,30.22,29.58,5,0,5,0.01
2014-1-6,45,27,3,42,16,-100,97,64,42,30.07,29.43,27,4,28,0.10
2014-1-7,13,6,0,-6,-10,-15,56,47,38,30.41,30.07,27,5,27,0.00
2014-1-8,26,17,7,15,4,-6,77,56,41,30.55,30.40,10,1,12,0.00
2014-1-9,37,28,19,24,17,10,82,66,49,30.60,30.44,9,0,9,0.00
2014-1-10,38,34,31,34,30,22,96,87,66,30.47,30.06,5,0,6,0.10
2014-1-11,52,41,33,50,38,32,98,93,62,30.07,29.33,24,1,24,0.30
2014-1-12,47,41,27,35,30,24,90,64,53,30.03,29.53,28,5,28,0.00
2014-1-13,52,37,23,39,30,21,94,78,54,30.03,29.78,9,0,9,0.00
2014-1-14,50,43,29,46,39,27,96,86,72,29.84,29.64,6,0,11,0.12
2014-1-15,47,34,25,39,30,24,96,85,54,29.94,29.83,13,1,13,0.00
2014-1-16,39,31,26,27,20,16,85,64,45,29.98,29.82,11,2,11,0.00
2014-1-17,49,34,22,32,26,19,92,73,47,29.89,29.77,13,1,13,0.00
2014-1-18,37,23,14,32,13,7,93,66,49,29.95,29.79,22,5,24,0.00
2014-1-19,43,29,17,28,19,12,80,66,48,29.90,29.67,20,1,20,0.00
2014-1-20,50,36,21,31,25,18,90,66,45,29.83,29.61,23,3,23,0.00
2014-1-21,36,25,12,30,20,2,94,83,64,29.90,29.73,22,5,22,0.00
2014-1-22,17,10,2,2,-3,-7,68,55,39,30.06,29.89,17,4,18,0.00
2014-1-23,23,8,-7,12,-1,-11,86,67,45,30.43,30.06,18,3,18,0.00
2014-1-24,23,12,3,2,-2,-7,65,53,32,30.50,29.97,18,2,18,0.00
2014-1-25,34,24,10,24,11,-2,89,57,46,29.97,29.38,29,5,29,0.00
2014-1-26,27,22,11,17,8,0,75,56,45,29.85,29.64,24,3,24,0.00
2014-1-27,38,23,14,32,10,-2,86,60,36,30.18,29.57,25,4,25,0.00
2014-1-28,15,10,5,4,-5,-10,78,49,39,30.42,30.18,16,2,17,0.00
2014-1-29,22,13,4,5,-3,-10,84,49,32,30.32,30.20,15,3,16,0.00
2014-1-30,30,15,-3,11,2,-8,83,58,37,30.42,30.10,14,1,14,0.00
2014-1-31,45,30,18,23,18,10,82,63,33,30.18,30.06,4,0,4,0.00
2014-2-1,49,34,20,28,23,16,87,67,39,30.22,29.92,14,1,14,0.00
2014-2-2,57,40,25,41,32,22,89,74,50,30.06,29.86,16,1,18,0.01
2014-2-3,39,34,30,36,32,25,96,90,78,30.29,29.99,11,2,11,0.86
2014-2-4,34,28,20,26,23,18,93,80,67,30.43,30.11,7,0,8,0.02
2014-2-5,45,34,28,37,28,18,95,82,60,30.11,29.64,33,4,33,0.61
2014-2-6,36,29,24,19,17,16,75,62,48,30.32,30.09,18,3,21,0.00
2014-2-7,38,30,23,22,17,11,75,59,46,30.30,30.21,15,2,15,0.00
2014-2-8,32,25,18,20,16,12,89,68,52,30.30,30.14,11,1,11,0.00
2014-2-9,32,28,19,28,22,16,95,80,61,30.15,29.92,16,1,18,0.00
2014-2-10,31,25,17,20,13,7,70,59,45,30.29,30.02,20,3,20,0.00
2014-2-11,32,19,7,14,9,4,88,66,43,30.45,30.29,12,1,12,0.00
2014-2-12,25,17,5,18,9,1,91,73,50,30.50,30.15,10,1,11,0.00
2014-2-13,36,28,19,31,25,16,95,90,72,30.15,29.35,25,8,25,0.00
2014-2-14,48,40,34,29,24,17,73,54,38,29.67,29.39,24,4,25,0.02
2014-2-15,38,32,26,32,26,11,94,77,53,29.93,29.57,25,6,25,0.02
2014-2-16,34,27,22,24,16,9,90,62,47,30.17,29.92,21,3,21,0.00
2014-2-17,33,25,11,22,12,5,88,58,34,30.42,30.12,18,2,18,0.00
2014-2-18,54,36,17,30,24,14,92,64,30,30.13,29.93,20,4,22,0.00
2014-2-19,59,40,26,42,30,21,92,69,36,30.09,29.65,29,3,33,0.12
2014-2-20,49,39,25,34,28,22,92,67,44,30.18,29.84,20,2,20,0.00
2014-2-21,56,44,36,47,31,23,96,64,30,29.92,29.61,21,2,22,0.39
2014-2-22,60,45,29,29,24,20,82,46,23,30.03,29.92,14,3,22,0.00
2014-2-23,58,40,27,38,30,23,89,70,38,29.98,29.83,15,2,15,0.03
2014-2-24,39,34,29,34,16,10,82,48,35,30.09,29.90,26,6,27,0.01
2014-2-25,36,29,22,21,15,11,72,55,44,30.08,29.95,16,3,18,0.00
2014-2-26,32,27,15,21,12,5,77,54,36,29.96,29.81,20,4,20,0.00
2014-2-27,33,21,9,14,7,0,88,58,33,30.14,29.66,33,5,33,0.00
2014-2-28,30,17,4,6,-1,-6,77,47,28,30.39,30.14,9,1,9,0.00
2014-3-1,43,29,12,24,14,4,79,56,36,30.32,30.10,11,1,12,0.00
2014-3-2,40,36,30,36,29,22,93,75,55,30.10,29.96,12,2,12,0.24
2014-3-3,30,16,-1,27,7,-5,92,70,44,30.33,29.97,15,4,17,0.00
2014-3-4,32,15,-4,12,4,-7,87,66,31,30.42,30.20,8,0,8,0.03
2014-3-5,45,28,11,25,15,7,88,60,38,30.39,30.16,15,1,15,0.05
2014-3-6,33,27,20,20,15,9,68,60,50,30.53,30.32,12,3,15,0.00
2014-3-7,44,32,25,32,24,17,91,71,58,30.32,29.91,15,1,15,0.00
2014-3-8,63,43,22,40,30,20,94,65,35,29.93,29.83,15,2,15,0.00
2014-3-9,50,42,35,37,24,15,80,51,30,30.08,29.88,20,5,21,0.00
2014-3-10,70,51,32,37,30,22,74,47,29,29.94,29.57,24,2,24,0.00
2014-3-11,72,60,43,46,40,33,81,48,35,29.64,29.54,24,4,28,0.00
2014-3-12,70,46,29,56,38,16,91,75,55,29.56,28.96,25,4,36,0.12
2014-3-13,32,24,15,17,6,-2,62,45,34,30.13,29.50,30,7,32,0.00
2014-3-14,60,42,24,30,20,8,60,41,29,30.14,29.77,23,5,23,0.00
2014-3-15,61,53,46,39,28,23,63,39,25,30.00,29.72,29,5,29,0.00
2014-3-16,46,35,25,29,24,16,93,66,39,30.14,30.00,11,3,14,0.00
2014-3-17,33,27,22,24,22,20,93,83,67,30.05,29.97,11,2,12,0.10
2014-3-18,42,35,28,31,24,16,84,65,45,30.17,30.04,9,0,10,0.07
2014-3-19,43,38,34,39,34,26,95,84,65,30.16,29.80,14,2,14,0.03
2014-3-20,54,47,39,41,31,24,97,56,34,29.95,29.76,28,7,28,0.01
2014-3-21,53,43,35,40,33,27,89,68,52,30.03,29.94,10,1,11,0.01
2014-3-22,67,50,34,42,34,31,93,59,28,29.98,29.76,23,4,23,0.00
2014-3-23,45,39,29,31,23,10,69,53,35,30.16,29.97,21,5,22,0.00
2014-3-24,40,29,20,14,9,7,60,45,26,30.28,30.08,18,3,18,0.00
2014-3-25,32,29,23,30,23,11,94,80,52,30.09,29.83,7,1,8,0.01
2014-3-26,34,29,22,25,13,7,95,53,34,30.27,29.86,28,7,28,0.00
2014-3-27,50,33,15,26,18,9,86,57,37,30.37,30.07,20,4,22,0.02
2014-3-28,67,52,36,53,43,23,91,72,54,30.07,29.88,22,3,23,0.08
2014-3-29,53,47,44,48,44,41,96,89,75,30.03,29.54,12,2,12,0.60
2014-3-30,47,42,34,45,36,30,96,82,60,29.84,29.52,39,9,39,0.41
2014-3-31,66,51,40,34,30,27,65,47,26,30.05,29.83,25,8,26,0.00
2014-4-1,69,50,34,44,35,28,82,58,36,30.11,29.86,10,1,12,0.00
2014-4-2,71,54,39,51,43,35,88,68,42,30.06,29.91,10,1,10,0.00
2014-4-3,63,55,49,52,46,41,92,74,50,30.04,29.85,8,1,13,0.04
2014-4-4,59,51,47,50,45,40,92,82,68,29.86,29.60,13,2,13,0.18
2014-4-5,54,48,39,46,33,27,96,57,43,30.12,29.67,20,5,22,0.00
2014-4-6,59,45,27,32,27,22,88,53,26,30.21,30.06,14,1,14,0.00
2014-4-7,45,40,38,40,36,29,96,84,53,30.09,29.53,11,1,11,0.41
2014-4-8,59,49,38,49,41,34,98,76,48,29.64,29.41,23,3,25,0.00
2014-4-9,64,51,33,40,33,28,92,55,29,30.00,29.64,21,4,21,0.00
2014-4-10,72,54,31,41,35,27,89,52,26,30.13,29.89,18,4,22,0.00
2014-4-11,80,62,48,55,46,37,97,59,31,29.98,29.85,17,2,17,0.13
2014-4-12,75,59,40,51,44,34,98,64,27,30.20,29.98,14,2,14,0.00
2014-4-13,84,68,46,60,53,44,93,62,37,30.03,29.85,22,4,22,0.00
2014-4-14,76,68,56,59,55,52,87,65,48,29.87,29.66,22,5,22,0.00
2014-4-15,68,52,34,62,46,19,95,80,53,30.03,29.44,29,6,34,0.58
2014-4-16,50,37,29,25,20,14,72,50,31,30.48,30.02,19,4,19,0.00
2014-4-17,57,42,26,36,29,21,87,63,39,30.59,30.44,16,2,16,0.00
2014-4-18,58,44,32,43,36,28,89,72,51,30.52,30.20,10,1,11,0.00
2014-4-19,69,53,36,44,38,31,93,61,32,30.26,30.16,12,1,15,0.00
2014-4-20,67,54,42,43,35,28,77,50,37,30.36,30.22,11,2,14,0.00
2014-4-21,72,52,32,43,36,30,94,59,28,30.22,29.79,11,1,11,0.00
2014-4-22,72,58,44,57,48,38,88,70,51,29.79,29.50,17,2,19,0.10
2014-4-23,55,50,45,42,36,31,66,58,50,29.97,29.66,25,7,26,0.00
2014-4-24,68,51,40,34,26,21,64,40,19,30.10,29.93,13,2,15,0.00
2014-4-25,67,52,39,56,44,32,96,75,41,29.95,29.65,21,2,24,1.05
2014-4-26,74,62,51,52,45,36,82,56,32,29.86,29.68,30,6,30,0.04
2014-4-27,68,54,42,44,37,32,77,54,33,30.03,29.86,13,2,14,0.00
2014-4-28,60,51,44,50,43,36,95,74,50,30.06,29.90,14,2,14,0.23
2014-4-29,48,47,45,47,46,43,97,94,92,30.14,29.97,14,2,14,0.73
2014-4-30,51,48,45,51,48,44,98,97,95,30.13,29.80,8,1,8,0.57
2014-5-1,75,61,51,61,51,38,99,73,42,29.81,29.66,14,2,18,0.05
2014-5-2,65,57,44,44,40,37,85,53,38,29.82,29.74,18,2,20,0.00
2014-5-3,71,58,43,48,43,39,91,62,34,29.83,29.66,18,1,18,0.00
2014-5-4,74,61,44,51,42,35,83,51,30,29.91,29.66,26,4,26,0.00
2014-5-5,66,53,42,47,38,32,94,60,33,30.02,29.83,12,2,12,0.42
2014-5-6,74,59,47,51,47,44,97,71,37,29.98,29.83,7,1,8,0.00
2014-5-7,64,53,43,55,47,39,92,79,51,30.22,29.98,9,1,9,0.42
2014-5-8,86,66,47,68,57,45,97,77,45,30.10,29.91,10,1,11,0.00
2014-5-9,81,70,56,70,63,54,97,81,60,30.03,29.82,15,2,15,0.02
2014-5-10,78,68,59,67,62,57,96,83,53,29.91,29.83,20,1,20,0.32
2014-5-11,84,68,56,58,54,46,97,65,29,30.07,29.89,12,2,13,0.00
2014-5-12,88,69,53,70,61,51,95,78,41,30.06,29.96,13,1,16,0.07
2014-5-13,89,73,62,72,66,61,98,81,51,30.08,29.96,16,1,16,0.41
2014-5-14,66,63,60,64,61,58,96,93,89,30.14,30.04,7,1,7,0.00
2014-5-15,77,68,64,68,65,63,97,89,71,30.06,29.80,20,4,21,0.79
2014-5-16,69,60,53,64,50,44,97,73,46,29.91,29.73,12,3,13,1.98
2014-5-17,65,55,44,46,42,36,94,64,36,30.13,29.91,19,2,19,0.00
2014-5-18,65,53,39,45,40,36,95,66,37,30.22,30.13,11,2,11,0.00
2014-5-19,74,56,37,48,41,35,96,64,28,30.27,30.09,9,1,9,0.00
2014-5-20,76,60,43,57,48,40,95,68,35,30.16,29.92,9,1,9,0.00
2014-5-21,75,66,55,66,58,51,94,76,59,29.93,29.81,9,0,10,0.00
2014-5-22,84,72,61,68,61,49,97,72,44,29.88,29.72,22,3,22,0.12
2014-5-23,74,64,51,55,50,44,89,61,42,30.00,29.85,18,3,18,0.00
2014-5-24,77,63,48,56,50,45,88,65,41,30.08,29.97,10,2,12,0.00
2014-5-25,82,66,48,59,53,46,97,67,32,30.12,30.01,7,0,8,0.00
2014-5-26,86,69,50,65,56,48,96,68,34,30.09,29.90,10,1,10,0.00
2014-5-27,87,75,62,71,65,57,92,72,53,29.93,29.77,22,1,22,0.40
2014-5-28,85,74,66,70,66,64,94,77,57,29.95,29.79,17,2,17,0.08
2014-5-29,66,58,56,64,56,54,97,95,92,30.10,29.96,6,1,8,0.21
2014-5-30,75,62,56,61,57,55,98,85,54,30.11,30.01,11,1,11,0.04
2014-5-31,76,60,49,59,53,47,98,81,41,30.15,30.05,10,1,11,0.00
2014-6-12,77,72,70,72,70,69,96,94,83,29.78,29.75,10,0,11,1.47
2014-6-13,86,72,66,72,67,61,99,85,52,29.82,29.65,25,1,28,0.07
2014-6-14,75,67,56,64,56,51,93,70,50,30.05,29.82,15,2,16,0.00
2014-6-15,85,67,50,64,57,48,97,74,43,30.14,30.00,8,1,8,0.00
2014-6-16,92,74,57,73,65,56,97,76,44,30.09,29.96,10,1,10,0.00
2014-6-17,93,79,66,76,70,64,97,77,51,30.04,29.87,14,2,14,0.00
2014-6-18,93,80,70,78,72,65,95,77,54,29.96,29.88,11,1,12,0.01
2014-6-19,84,75,67,73,69,65,95,82,64,29.98,29.85,11,2,13,0.03
2014-6-20,84,72,62,66,61,47,98,72,40,30.02,29.85,16,1,17,0.01
2014-6-21,69,65,63,66,62,60,96,90,84,29.88,29.81,7,1,7,0.13
2014-6-22,81,70,63,67,63,61,95,80,58,29.93,29.83,8,0,8,0.00
2014-6-23,71,62,58,64,60,57,98,95,79,30.03,29.93,8,0,8,0.00
2014-6-24,86,74,60,74,67,58,94,78,65,30.04,29.89,15,3,16,0.00
2014-6-25,88,76,65,75,70,64,97,83,60,29.91,29.72,13,2,17,0.10
2014-6-26,86,76,67,69,66,63,97,73,50,29.93,29.79,12,2,12,0.00
2014-6-27,89,75,60,72,66,59,97,75,47,30.10,29.93,10,1,11,0.00
2014-6-28,85,75,67,67,64,56,93,70,42,30.19,30.10,15,2,15,0.00
2014-6-29,85,74,63,65,62,59,94,67,45,30.16,30.02,17,3,18,0.00
2014-6-30,88,76,64,75,68,61,97,78,58,30.03,29.84,12,1,12,0.18
2014-7-1,93,80,69,79,73,68,98,82,54,29.87,29.72,13,2,13,0.46
2014-7-2,94,77,69,78,72,68,98,87,51,29.86,29.75,30,1,30,0.57
2014-7-3,90,76,67,77,71,65,98,86,59,29.93,29.82,15,1,15,0.10
2014-7-4,77,72,67,65,56,48,77,59,44,30.14,29.92,19,5,23,0.00
2014-7-5,83,70,57,60,53,47,90,57,35,30.22,30.08,11,1,11,0.00
2014-7-6,87,72,55,68,60,53,96,70,41,30.09,29.87,8,1,9,0.00
2014-7-7,92,80,69,71,68,64,88,67,45,29.87,29.69,14,2,17,0.00
2014-7-8,91,77,67,74,68,64,95,76,51,29.77,29.60,25,3,29,0.16
2014-7-9,89,76,65,72,68,62,97,78,43,29.89,29.74,12,2,13,0.03
2014-7-10,88,74,62,68,65,60,97,75,46,30.07,29.88,17,1,21,0.01
2014-7-11,89,75,62,70,66,60,97,76,50,30.14,30.06,9,1,9,0.00
2014-7-12,87,72,63,74,67,62,97,85,57,30.13,30.07,15,2,15,0.19
2014-7-13,88,78,68,76,72,67,98,83,64,29.90,29.79,23,4,25,0.02
2014-7-14,86,74,69,78,72,68,99,93,73,29.87,29.73,21,1,21,0.91
2014-7-15,82,75,69,75,71,63,99,87,68,29.76,29.65,8,1,8,0.02
2014-7-16,79,71,63,63,57,53,83,62,42,29.89,29.72,13,2,13,0.00
2014-7-17,81,70,60,60,57,53,90,65,41,30.08,29.89,9,1,10,0.00
2014-7-18,81,69,54,65,59,52,97,75,49,30.19,30.08,8,1,8,0.00
2014-7-19,80,70,65,67,64,61,97,83,54,30.14,30.05,12,1,13,0.08
2014-7-20,81,72,63,68,65,62,96,80,60,30.07,29.99,8,1,8,0.00
2014-7-21,84,74,66,73,69,64,97,85,70,30.10,30.03,10,1,10,0.00
2014-7-22,86,76,65,75,71,64,98,85,68,30.10,29.97,13,2,14,0.00
2014-7-23,94,79,66,77,72,66,98,82,53,29.97,29.72,15,2,15,0.13
2014-7-24,80,72,60,70,64,58,94,75,50,29.91,29.79,9,1,9,0.05
2014-7-25,84,68,52,64,58,50,97,74,43,30.03,29.90,8,1,9,0.00
2014-7-26,88,74,62,70,64,60,95,75,42,29.94,29.78,11,1,12,0.26
2014-7-27,86,75,68,74,70,66,95,84,68,29.81,29.51,16,3,17,0.33
2014-7-28,78,72,66,70,63,58,97,76,55,29.80,29.49,19,4,19,0.05
2014-7-29,71,64,53,58,52,49,90,67,48,29.96,29.78,13,2,15,0.00
2014-7-30,79,65,49,61,55,47,96,72,43,30.02,29.94,13,1,13,0.00
2014-7-31,85,71,56,66,62,54,97,75,46,30.04,29.98,10,1,11,0.00
2014-8-1,77,69,60,69,64,58,97,86,67,30.11,30.04,11,1,13,0.00
2014-8-2,83,71,58,69,64,57,97,79,58,30.09,29.97,11,1,11,0.00
2014-8-3,85,73,63,69,66,62,97,82,54,30.02,29.91,13,1,14,0.17
2014-8-4,87,72,59,69,65,58,98,79,52,30.05,29.98,6,0,8,0.01
2014-8-5,89,74,59,70,65,58,98,75,48,30.02,29.86,9,1,9,0.00
2014-8-6,84,69,59,70,65,57,98,87,57,29.91,29.82,6,0,6,0.09
2014-8-7,76,67,63,66,64,61,98,91,64,29.96,29.88,7,0,7,0.01
2014-8-8,83,75,66,64,63,61,89,69,49,30.03,29.98,11,1,11,0.00
2014-8-9,86,72,59,69,64,57,93,76,53,30.06,29.98,9,1,11,0.00
2014-8-10,85,71,58,68,63,57,98,79,52,30.08,29.98,12,2,14,0.00
2014-8-11,81,68,59,66,62,58,97,85,54,30.04,29.93,17,2,17,0.35
2014-8-12,78,70,65,73,68,63,98,93,84,29.93,29.68,13,2,13,0.60
2014-8-13,77,71,61,70,62,55,98,76,56,29.86,29.69,19,3,21,0.08
2014-8-14,80,67,52,62,55,50,95,70,41,29.89,29.79,18,2,18,0.00
2014-8-15,79,65,50,54,51,47,92,64,35,29.96,29.88,10,1,12,0.00
2014-8-16,83,65,47,61,54,45,97,73,41,29.98,29.85,20,1,23,0.00
2014-8-17,85,74,61,69,64,57,91,70,53,29.88,29.80,13,1,13,0.00
2014-8-18,85,73,64,70,66,61,95,79,58,29.87,29.72,12,1,12,0.00
2014-8-19,84,74,66,72,68,63,94,82,64,29.84,29.74,9,1,10,0.00
2014-8-20,85,73,64,75,69,62,98,88,65,29.94,29.82,16,2,17,0.47
2014-8-21,87,73,64,75,69,63,98,86,63,29.98,29.90,8,1,9,0.13
2014-8-22,82,73,66,73,69,64,96,86,72,29.94,29.86,8,0,8,0.00
2014-8-23,72,70,66,70,67,65,97,93,87,30.03,29.89,7,0,7,0.15
2014-8-24,79,69,61,66,64,60,97,84,57,30.10,30.03,9,0,9,0.14
2014-8-25,82,68,55,66,60,55,99,80,49,30.14,30.06,8,0,8,0.00
2014-8-26,85,68,52,66,60,51,98,79,46,30.14,30.02,10,1,12,0.00
2014-8-27,90,73,55,73,65,54,98,79,54,30.03,29.84,10,1,10,0.01
2014-8-28,84,74,58,70,61,52,84,64,37,30.03,29.85,13,2,14,0.00
2014-8-29,81,66,49,62,56,47,97,73,48,30.15,30.03,10,1,11,0.00
2014-8-30,85,73,60,74,67,57,95,81,67,30.13,30.01,13,2,13,0.00
2014-8-31,90,76,66,75,71,65,98,85,59,30.03,29.89,11,1,13,0.00
2014-9-1,93,79,70,74,72,69,98,80,48,29.96,29.84,13,1,15,0.00
2014-9-2,91,80,67,79,71,65,94,74,53,29.90,29.76,15,2,19,0.12
2014-9-3,86,78,67,69,67,65,93,69,55,30.05,29.97,7,1,7,0.06
2014-9-4,89,76,63,74,69,62,97,82,60,30.09,29.98,14,2,17,0.00
2014-9-5,90,77,67,78,72,66,98,85,61,30.08,29.92,9,0,12,0.26
2014-9-6,92,76,68,75,71,65,98,85,52,29.95,29.77,13,2,16,1.09
2014-9-7,77,68,57,65,58,51,93,72,46,30.12,29.94,12,2,12,0.05
2014-9-8,76,63,51,66,58,50,97,84,64,30.19,30.11,12,0,17,0.00
2014-9-9,72,66,60,67,63,57,95,88,82,30.16,30.03,5,0,6,0.00
2014-9-10,80,71,64,70,66,62,96,87,68,30.05,29.87,12,2,13,0.00
2014-9-11,85,74,65,72,67,58,96,80,63,29.96,29.78,13,2,13,0.00
2014-9-12,75,64,58,59,56,53,90,75,57,30.11,29.95,11,2,11,0.00
2014-9-13,69,60,56,61,55,50,94,84,64,30.20,30.03,11,1,12,0.14
2014-9-14,69,56,42,53,48,40,97,77,52,30.28,30.13,10,1,10,0.00
2014-9-15,74,59,43,58,52,42,98,80,50,30.20,29.96,8,0,9,0.00
2014-9-16,75,64,51,58,55,48,97,75,48,30.00,29.93,12,2,15,0.01
2014-9-17,75,59,44,57,50,43,97,77,44,30.02,29.88,10,0,10,0.00
2014-9-18,78,62,49,58,52,48,97,74,42,30.06,29.89,10,0,10,0.00
2014-9-19,73,62,49,60,54,47,94,78,56,30.20,30.05,9,1,10,0.00
2014-9-20,81,69,58,63,60,56,97,76,52,30.20,29.94,14,4,18,0.00
2014-9-21,86,69,52,68,59,49,98,73,47,29.98,29.55,19,2,22,0.00
2014-9-22,69,61,48,53,48,43,82,64,50,30.19,29.72,16,4,19,0.00
2014-9-23,72,55,39,50,44,37,95,71,40,30.33,30.18,7,0,7,0.00
2014-9-24,68,56,40,57,51,39,97,83,63,30.45,30.33,9,1,9,0.04
2014-9-25,69,62,57,62,59,56,96,90,79,30.34,30.18,10,2,10,0.44
2014-9-26,77,64,52,61,57,51,98,81,53,30.22,30.12,12,1,12,0.00
2014-9-27,82,61,45,62,54,44,98,80,42,30.22,30.11,7,0,7,0.01
2014-9-28,79,62,47,62,56,46,98,82,49,30.16,29.98,10,0,10,0.00
2014-9-29,77,66,58,64,60,56,97,84,58,29.98,29.84,6,0,7,0.00
2014-9-30,79,65,52,67,60,51,98,87,64,29.87,29.76,10,1,12,0.46
2014-10-1,73,63,56,64,60,55,97,91,72,30.01,29.87,4,0,5,0.16
2014-10-2,77,63,55,64,59,54,98,87,57,30.07,29.98,5,0,6,0.00
2014-10-3,68,64,55,65,62,54,98,93,84,30.03,29.61,16,3,20,0.17
2014-10-4,65,57,40,65,46,30,98,68,42,29.76,29.54,24,3,24,0.06
2014-10-5,63,48,35,42,37,32,92,68,41,29.91,29.75,14,1,14,0.00
2014-10-6,72,54,35,56,45,34,97,75,48,29.93,29.79,25,4,26,0.13
2014-10-7,65,59,54,59,55,51,95,87,72,29.96,29.76,13,2,13,0.18
2014-10-8,73,60,49,56,50,44,98,72,41,29.95,29.76,17,2,19,0.09
2014-10-9,70,61,43,50,46,40,90,59,39,30.04,29.94,15,2,15,0.00
2014-10-10,59,55,51,54,52,49,94,88,76,30.06,29.99,4,0,4,0.03
2014-10-11,59,52,48,53,50,47,97,93,81,30.11,29.95,8,0,8,0.53
2014-10-12,60,53,46,51,48,44,98,83,60,30.24,30.11,9,1,10,0.00
2014-10-13,66,58,54,62,56,50,98,92,86,30.20,30.10,7,1,7,0.00
2014-10-14,76,68,53,69,65,52,99,90,75,30.10,29.82,22,5,22,0.03
2014-10-15,71,64,56,68,63,55,98,96,86,29.83,29.66,18,2,21,2.51
2014-10-16,67,59,53,61,56,52,99,91,73,29.70,29.63,6,1,6,0.01
2014-10-17,72,60,51,57,53,49,95,77,51,29.75,29.59,14,2,15,0.00
2014-10-18,64,57,51,54,47,41,95,70,57,29.83,29.55,16,4,18,0.00
2014-10-19,58,50,38,42,37,33,91,64,43,30.05,29.82,18,4,18,0.00
2014-10-20,63,48,33,50,41,32,96,81,50,30.05,29.85,8,0,8,0.01
2014-10-21,64,52,43,54,49,42,98,88,62,29.88,29.76,9,1,10,0.04
2014-10-22,56,53,50,49,47,43,90,81,70,29.97,29.85,19,6,24,0.04
2014-10-23,64,57,50,48,44,42,76,65,50,29.95,29.83,24,7,24,0.00
2014-10-24,68,57,46,46,42,36,76,60,36,29.96,29.85,14,3,14,0.00
2014-10-25,73,58,39,52,45,36,91,63,39,29.91,29.63,20,2,20,0.00
2014-10-26,68,60,48,53,36,29,67,41,26,29.87,29.62,24,5,24,0.00
2014-10-27,73,51,32,44,37,29,93,63,29,30.03,29.86,10,1,10,0.00
2014-10-28,85,62,43,59,50,40,90,67,35,29.97,29.81,14,1,14,0.00
2014-10-29,68,58,43,58,50,40,89,75,59,29.93,29.82,13,1,13,0.09
2014-10-30,55,48,38,42,39,35,95,72,54,30.03,29.92,13,1,13,0.00
2014-10-31,54,47,40,43,40,38,93,78,58,29.97,29.80,5,0,6,0.00
2014-11-1,49,46,41,41,38,32,82,71,61,29.93,29.80,24,7,24,0.00
2014-11-2,49,43,40,32,26,22,68,53,36,30.22,29.93,27,8,27,0.00
2014-11-3,60,47,36,36,26,16,85,48,21,30.28,30.14,18,2,18,0.00
2014-11-4,72,55,41,43,35,28,79,50,20,30.16,29.97,9,1,9,0.00
2014-11-5,66,58,50,50,46,37,95,65,38,30.13,29.98,11,1,12,0.04
2014-11-6,66,55,49,56,48,39,97,80,40,30.03,29.59,18,2,19,0.49
2014-11-7,51,46,32,42,33,24,82,63,42,30.00,29.66,27,5,28,0.00
2014-11-8,49,39,25,36,29,22,90,69,49,30.02,29.83,17,2,17,0.00
2014-11-9,58,45,32,40,35,30,90,70,41,29.97,29.84,13,1,13,0.00
2014-11-10,63,42,30,46,36,28,96,80,50,30.11,29.96,8,1,13,0.00
2014-11-11,69,47,30,49,40,28,97,79,44,30.02,29.81,11,1,11,0.00
2014-11-12,58,45,36,50,36,29,97,72,44,30.11,29.78,17,3,18,0.00
2014-11-13,41,38,35,33,30,25,86,72,62,30.12,30.01,10,1,18,0.00
2014-11-14,38,33,29,25,19,16,67,57,42,30.26,30.04,13,4,20,0.00
2014-11-15,43,31,23,22,19,17,85,62,38,30.39,30.26,10,1,11,0.00
2014-11-16,41,35,25,35,27,21,95,74,52,30.29,29.95,8,1,8,0.20
2014-11-17,47,39,32,43,35,19,96,86,58,29.95,29.46,24,2,26,0.56
2014-11-18,32,24,19,21,8,3,64,50,39,30.21,29.78,25,5,29,0.00
2014-11-19,35,26,14,17,12,7,77,54,42,30.30,29.92,14,3,16,0.00
2014-11-20,48,37,27,28,19,10,72,49,36,30.10,29.85,20,4,21,0.00
2014-11-21,34,27,16,14,12,9,83,52,37,30.49,30.09,22,4,24,0.00
2014-11-22,50,29,11,25,17,8,90,66,32,30.48,30.15,12,1,12,0.00
2014-11-23,58,44,30,44,31,25,84,61,39,30.16,29.85,11,1,12,0.02
2014-11-25,58,45,34,34,32,30,85,62,38,30.10,29.95,11,1,11,0.38
2014-11-26,42,36,32,35,33,31,96,90,69,30.11,29.90,10,1,12,0.79
2014-11-27,42,36,31,36,31,23,97,83,65,30.14,29.95,17,2,17,0.26
2014-11-28,36,31,24,26,21,18,87,66,50,30.27,30.14,20,3,20,0.00
2014-11-29,42,35,26,31,27,22,92,73,56,30.26,30.06,13,2,13,0.00
2014-11-30,63,50,33,48,40,28,82,69,54,30.07,29.95,16,2,17,0.00
2014-12-1,69,54,39,56,45,30,84,72,62,30.42,30.03,20,3,20,0.01
2014-12-2,38,34,33,33,32,30,96,92,73,30.52,30.21,6,0,6,0.35
2014-12-3,55,42,34,47,40,33,97,91,64,30.22,29.97,24,2,26,0.12
2014-12-4,39,37,36,34,32,30,90,83,70,30.42,30.38,4,0,4,0.00
2014-12-5,40,38,36,38,35,32,96,90,81,30.45,30.23,9,1,9,0.11
2014-12-6,42,40,39,41,39,34,97,94,78,30.27,29.98,21,3,21,0.85
2014-12-7,46,38,30,33,24,17,77,60,38,30.53,30.27,20,5,21,0.04
2014-12-8,33,30,24,28,22,17,90,72,59,30.54,30.33,5,0,6,0.00
2014-12-9,43,42,40,38,36,34,89,80,73,29.89,29.87,18,4,19,0.19
2014-12-10,44,40,34,35,31,24,77,71,64,29.89,29.78,29,7,29,0.00
2014-12-11,39,35,31,24,19,10,68,54,31,29.96,29.80,23,6,23,0.00
2014-12-12,40,35,26,28,24,16,85,64,42,30.09,29.95,16,3,16,0.00
2014-12-13,46,35,22,32,27,20,94,74,53,30.09,29.97,10,1,12,0.00
2014-12-14,50,47,34,40,38,29,83,72,67,29.99,29.91,20,5,20,0.00
2014-12-15,58,45,33,45,39,31,94,80,59,30.03,29.94,9,1,9,0.00
2014-12-16,42,37,30,41,36,29,97,96,94,29.96,29.79,5,0,6,0.14
2014-12-17,47,42,36,43,34,24,98,71,53,30.03,29.85,19,3,19,0.00
2014-12-18,36,34,32,25,23,21,71,65,59,30.14,30.02,17,4,20,0.00
2014-12-19,38,33,29,26,24,21,74,68,61,30.22,30.06,21,4,21,0.00
2014-12-20,37,27,17,25,22,15,92,80,60,30.28,30.19,2,0,4,0.00
2014-12-21,42,32,21,29,25,19,90,77,58,30.32,30.22,6,0,6,0.00
2014-12-22,34,29,20,31,26,17,96,90,76,30.27,30.06,4,0,4,0.14
2014-12-23,39,36,32,38,35,31,97,97,96,30.09,29.94,4,0,4,0.09
2014-12-24,54,44,38,51,43,38,99,98,81,29.96,29.44,16,0,16,0.61
2014-12-25,54,45,31,48,35,28,89,68,54,30.17,29.50,23,4,24,0.04
2014-12-26,53,36,24,37,30,22,95,78,48,30.29,30.15,7,0,9,0.00